Location: Chochol
(49.7771°N, 14.9780°E)
Time: 12:20:31
(UTC+00:00)

COSMOS 2455 - Pass Details

Date: 09 April 2020
Orbit: 899 x 910 km, 67.1° (Epoch: 03 June)

Event Time Altitude Azimuth Distance (km) Brightness Sun altitude
Rises 18:15:35 0° 324° (NW) 3,545 7.0 -5.6°
Reaches altitude 10° 18:18:08 10° 328° (NNW) 2,602 6.1 -6.0°
Maximum altitude 18:24:08 64° 50° (NE) 1,004 3.0 -6.9°
Drops below altitude 10° 18:30:07 10° 132° (SE) 2,592 4.6 -7.8°
Enters shadow 18:30:43 - 133° (SE) 2,815 4.8 -7.9°
